Time,TemperatureF,DewpointF,PressureIn,WindDirection,WindDirectionDegrees,WindSpeedMPH,WindSpeedGustMPH,Humidity,HourlyPrecipIn,Conditions,Clouds,dailyrainin,SoftwareType,DateUTC
2013-09-02 00:05:00,65.0,60.0,29.78,North,349,0.0,-999.0,83,-99.99,,,0.01,weatherlink.com 1.10,2013-09-02 05:05:00,
2013-09-02 00:20:00,64.9,60.0,29.78,North,349,0.0,-999.0,84,-99.99,,,0.01,weatherlink.com 1.10,2013-09-02 05:20:00,
2013-09-02 00:35:00,64.6,60.0,29.78,North,349,0.0,-999.0,85,-99.99,,,0.01,weatherlink.com 1.10,2013-09-02 05:35:00,
2013-09-02 00:50:00,64.3,59.0,29.78,North,349,0.0,-999.0,84,-99.99,,,0.01,weatherlink.com 1.10,2013-09-02 05:50:00,
2013-09-02 01:05:00,64.0,60.0,29.79,North,349,0.0,-999.0,85,-99.99,,,0.01,weatherlink.com 1.10,2013-09-02 06:05:00,
2013-09-02 01:20:00,63.6,59.0,29.79,North,349,0.0,-999.0,86,-99.99,,,0.01,weatherlink.com 1.10,2013-09-02 06:20:00,
2013-09-02 01:35:00,63.4,60.0,29.79,North,349,0.0,-999.0,87,-99.99,,,0.01,weatherlink.com 1.10,2013-09-02 06:35:00,
2013-09-02 02:05:00,63.2,59.0,29.80,North,349,0.0,-999.0,87,-99.99,,,0.01,weatherlink.com 1.10,2013-09-02 07:05:00,
2013-09-02 02:20:00,63.1,60.0,29.80,North,349,0.0,-999.0,88,-99.99,,,0.01,weatherlink.com 1.10,2013-09-02 07:20:00,
2013-09-02 02:35:00,62.9,59.0,29.81,North,349,0.0,-999.0,88,-99.99,,,0.01,weatherlink.com 1.10,2013-09-02 07:35:00,
2013-09-02 02:50:00,62.9,60.0,29.80,North,349,0.0,-999.0,89,-99.99,,,0.01,weatherlink.com 1.10,2013-09-02 07:50:00,
2013-09-02 03:05:00,62.7,60.0,29.80,North,349,0.0,-999.0,89,-99.99,,,0.01,weatherlink.com 1.10,2013-09-02 08:05:00,
2013-09-02 03:20:00,62.7,60.0,29.81,North,349,0.0,-999.0,90,-99.99,,,0.01,weatherlink.com 1.10,2013-09-02 08:20:00,
2013-09-02 03:35:00,62.6,60.0,29.81,North,349,0.0,-999.0,90,-99.99,,,0.01,weatherlink.com 1.10,2013-09-02 08:35:00,
2013-09-02 03:50:00,62.6,60.0,29.82,North,349,0.0,-999.0,91,-99.99,,,0.01,weatherlink.com 1.10,2013-09-02 08:50:00,
2013-09-02 04:06:00,62.7,60.0,29.82,North,349,0.0,-999.0,90,-99.99,,,0.01,weatherlink.com 1.10,2013-09-02 09:06:00,
2013-09-02 04:21:00,62.7,60.0,29.82,North,349,0.0,-999.0,90,-99.99,,,0.01,weatherlink.com 1.10,2013-09-02 09:21:00,
2013-09-02 04:36:00,62.3,60.0,29.83,North,349,0.0,-999.0,91,-99.99,,,0.01,weatherlink.com 1.10,2013-09-02 09:36:00,
2013-09-02 04:51:00,62.2,59.0,29.82,North,349,0.0,-999.0,90,-99.99,,,0.01,weatherlink.com 1.10,2013-09-02 09:51:00,
2013-09-02 05:06:00,62.1,60.0,29.83,North,349,0.0,-999.0,91,-99.99,,,0.01,weatherlink.com 1.10,2013-09-02 10:06:00,
2013-09-02 05:21:00,62.1,60.0,29.83,North,349,0.0,-999.0,91,-99.99,,,0.01,weatherlink.com 1.10,2013-09-02 10:21:00,
2013-09-02 05:36:00,62.1,60.0,29.84,North,349,0.0,-999.0,91,-99.99,,,0.01,weatherlink.com 1.10,2013-09-02 10:36:00,
2013-09-02 05:51:00,61.8,59.0,29.85,North,349,0.0,-999.0,90,-99.99,,,0.01,weatherlink.com 1.10,2013-09-02 10:51:00,
2013-09-02 06:06:00,61.7,59.0,29.85,North,349,0.0,-999.0,91,-99.99,,,0.01,weatherlink.com 1.10,2013-09-02 11:06:00,
2013-09-02 06:21:00,61.8,60.0,29.86,North,349,0.0,-999.0,92,-99.99,,,0.01,weatherlink.com 1.10,2013-09-02 11:21:00,
2013-09-02 06:36:00,62.0,60.0,29.86,North,349,0.0,-999.0,92,-99.99,,,0.01,weatherlink.com 1.10,2013-09-02 11:36:00,
2013-09-02 06:51:00,62.3,60.0,29.86,North,349,0.0,-999.0,92,-99.99,,,0.01,weatherlink.com 1.10,2013-09-02 11:51:00,
2013-09-02 07:06:00,62.7,61.0,29.87,North,349,0.0,-999.0,93,-99.99,,,0.01,weatherlink.com 1.10,2013-09-02 12:06:00,
2013-09-02 07:36:00,63.3,61.0,29.88,NNW,345,0.0,-999.0,91,-99.99,,,0.01,weatherlink.com 1.10,2013-09-02 12:36:00,
2013-09-02 07:51:00,63.3,60.0,29.88,North,2,0.0,-999.0,90,-99.99,,,0.01,weatherlink.com 1.10,2013-09-02 12:51:00,
2013-09-02 08:06:00,63.5,60.0,29.88,WNW,295,0.0,-999.0,88,-99.99,,,0.01,weatherlink.com 1.10,2013-09-02 13:06:00,
2013-09-02 08:21:00,63.6,60.0,29.89,NNW,330,0.0,-999.0,87,-99.99,,,0.01,weatherlink.com 1.10,2013-09-02 13:21:00,
2013-09-02 08:36:00,63.9,60.0,29.89,North,3,0.0,-999.0,87,-99.99,,,0.01,weatherlink.com 1.10,2013-09-02 13:36:00,
2013-09-02 08:51:00,64.1,60.0,29.90,West,276,0.0,-999.0,86,-99.99,,,0.01,weatherlink.com 1.10,2013-09-02 13:51:00,
2013-09-02 09:06:00,64.2,59.0,29.90,West,276,0.0,-999.0,84,-99.99,,,0.01,weatherlink.com 1.10,2013-09-02 14:06:00,
2013-09-02 09:21:00,64.0,59.0,29.91,West,276,0.0,-999.0,84,-99.99,,,0.01,weatherlink.com 1.10,2013-09-02 14:21:00,
2013-09-02 09:36:00,64.0,59.0,29.91,West,276,0.0,-999.0,84,-99.99,,,0.01,weatherlink.com 1.10,2013-09-02 14:36:00,
2013-09-02 09:51:00,64.1,60.0,29.91,West,276,0.0,-999.0,85,-99.99,,,0.01,weatherlink.com 1.10,2013-09-02 14:51:00,
2013-09-02 10:06:00,64.3,59.0,29.92,West,276,0.0,-999.0,83,-99.99,,,0.01,weatherlink.com 1.10,2013-09-02 15:06:00,
2013-09-02 10:21:00,64.5,59.0,29.92,West,276,0.0,-999.0,83,-99.99,,,0.01,weatherlink.com 1.10,2013-09-02 15:21:00,
2013-09-02 10:36:00,64.8,60.0,29.92,West,263,0.0,-999.0,83,-99.99,,,0.01,weatherlink.com 1.10,2013-09-02 15:36:00,
2013-09-02 10:51:00,65.3,59.0,29.92,West,264,3.0,-999.0,79,-99.99,,,0.00,weatherlink.com 1.10,2013-09-02 15:51:00,
2013-09-02 11:06:00,66.2,58.0,29.92,WSW,249,0.0,-999.0,74,-99.99,,,0.00,weatherlink.com 1.10,2013-09-02 16:06:00,
2013-09-02 11:21:00,66.9,58.0,29.93,West,262,0.0,-999.0,74,-99.99,,,0.00,weatherlink.com 1.10,2013-09-02 16:21:00,
2013-09-02 11:36:00,67.0,58.0,29.93,West,259,0.0,-999.0,74,-99.99,,,0.00,weatherlink.com 1.10,2013-09-02 16:36:00,
2013-09-02 11:51:00,67.0,58.0,29.94,West,270,0.0,-999.0,74,-99.99,,,0.00,weatherlink.com 1.10,2013-09-02 16:51:00,
2013-09-02 12:06:00,66.9,59.0,29.94,NW,318,0.0,-999.0,75,-99.99,,,0.00,weatherlink.com 1.10,2013-09-02 17:06:00,
2013-09-02 12:21:00,67.0,58.0,29.94,NW,308,0.0,-999.0,73,-99.99,,,0.00,weatherlink.com 1.10,2013-09-02 17:21:00,
2013-09-02 12:36:00,66.9,58.0,29.94,NNW,332,0.0,-999.0,73,-99.99,,,0.00,weatherlink.com 1.10,2013-09-02 17:36:00,
2013-09-02 13:06:00,67.1,58.0,29.93,SW,232,0.0,-999.0,73,-99.99,,,0.00,weatherlink.com 1.10,2013-09-02 18:06:00,
2013-09-02 13:21:00,67.5,59.0,29.93,WSW,237,0.0,-999.0,73,-99.99,,,0.00,weatherlink.com 1.10,2013-09-02 18:21:00,
2013-09-02 13:36:00,67.7,59.0,29.93,NNW,330,0.0,-999.0,73,-99.99,,,0.00,weatherlink.com 1.10,2013-09-02 18:36:00,
2013-09-02 13:51:00,68.0,57.0,29.93,WSW,255,0.0,-999.0,69,-99.99,,,0.00,weatherlink.com 1.10,2013-09-02 18:51:00,
2013-09-02 14:06:00,68.2,58.0,29.93,NW,322,1.0,-999.0,70,-99.99,,,0.00,weatherlink.com 1.10,2013-09-02 19:06:00,
2013-09-02 14:21:00,68.8,58.0,29.92,West,264,0.0,-999.0,68,-99.99,,,0.00,weatherlink.com 1.10,2013-09-02 19:21:00,
2013-09-02 14:36:00,69.2,60.0,29.92,WSW,257,0.0,-999.0,72,-99.99,,,0.00,weatherlink.com 1.10,2013-09-02 19:36:00,
2013-09-02 14:52:00,69.2,59.0,29.92,North,350,0.0,-999.0,70,-99.99,,,0.00,weatherlink.com 1.10,2013-09-02 19:52:00,
2013-09-02 15:07:00,69.0,58.0,29.92,North,2,0.0,-999.0,67,-99.99,,,0.00,weatherlink.com 1.10,2013-09-02 20:07:00,
2013-09-02 15:37:00,69.5,58.0,29.92,NNW,344,0.0,-999.0,68,-99.99,,,0.00,weatherlink.com 1.10,2013-09-02 20:37:00,
2013-09-02 15:52:00,69.6,58.0,29.91,NW,304,0.0,-999.0,67,-99.99,,,0.00,weatherlink.com 1.10,2013-09-02 20:52:00,
2013-09-02 16:07:00,70.5,58.0,29.92,West,280,0.0,-999.0,64,-99.99,,,0.00,weatherlink.com 1.10,2013-09-02 21:07:00,
2013-09-02 16:22:00,70.9,57.0,29.92,West,261,0.0,-999.0,62,-99.99,,,0.00,weatherlink.com 1.10,2013-09-02 21:22:00,
2013-09-02 16:37:00,72.5,57.0,29.91,WSW,251,0.0,-999.0,59,-99.99,,,0.00,weatherlink.com 1.10,2013-09-02 21:37:00,
2013-09-02 16:52:00,72.4,58.0,29.91,West,279,2.0,-999.0,61,-99.99,,,0.00,weatherlink.com 1.10,2013-09-02 21:52:00,
2013-09-02 17:07:00,71.7,55.0,29.92,West,279,0.0,-999.0,57,-99.99,,,0.00,weatherlink.com 1.10,2013-09-02 22:07:00,
2013-09-02 17:22:00,71.1,57.0,29.91,West,279,0.0,-999.0,62,-99.99,,,0.00,weatherlink.com 1.10,2013-09-02 22:22:00,
2013-09-02 17:37:00,70.4,57.0,29.91,West,267,0.0,-999.0,62,-99.99,,,0.00,weatherlink.com 1.10,2013-09-02 22:37:00,
2013-09-02 17:52:00,69.9,58.0,29.92,NW,304,0.0,-999.0,65,-99.99,,,0.00,weatherlink.com 1.10,2013-09-02 22:52:00,
2013-09-02 18:07:00,69.0,57.0,29.92,NW,305,0.0,-999.0,66,-99.99,,,0.00,weatherlink.com 1.10,2013-09-02 23:07:00,
2013-09-02 18:22:00,68.4,58.0,29.92,NW,305,0.0,-999.0,69,-99.99,,,0.00,weatherlink.com 1.10,2013-09-02 23:22:00,
2013-09-02 18:37:00,67.8,57.0,29.92,NW,305,0.0,-999.0,69,-99.99,,,0.00,weatherlink.com 1.10,2013-09-02 23:37:00,
2013-09-02 18:52:00,67.2,56.0,29.92,NW,305,0.0,-999.0,68,-99.99,,,0.00,weatherlink.com 1.10,2013-09-02 23:52:00,
2013-09-02 19:07:00,66.7,56.0,29.92,NW,305,0.0,-999.0,69,-99.99,,,0.00,weatherlink.com 1.10,2013-09-03 00:07:00,
2013-09-02 19:22:00,66.0,56.0,29.92,NW,305,0.0,-999.0,69,-99.99,,,0.00,weatherlink.com 1.10,2013-09-03 00:22:00,
2013-09-02 19:37:00,64.9,56.0,29.93,NW,305,0.0,-999.0,72,-99.99,,,0.00,weatherlink.com 1.10,2013-09-03 00:37:00,
2013-09-02 19:52:00,63.3,55.0,29.93,NW,305,0.0,-999.0,75,-99.99,,,0.00,weatherlink.com 1.10,2013-09-03 00:52:00,
2013-09-02 20:07:00,62.0,55.0,29.94,NW,305,0.0,-999.0,78,-99.99,,,0.00,weatherlink.com 1.10,2013-09-03 01:07:00,
2013-09-02 20:22:00,61.1,55.0,29.94,NW,305,0.0,-999.0,80,-99.99,,,0.00,weatherlink.com 1.10,2013-09-03 01:22:00,
2013-09-02 20:37:00,60.4,55.0,29.94,NW,305,0.0,-999.0,82,-99.99,,,0.00,weatherlink.com 1.10,2013-09-03 01:37:00,
2013-09-02 20:52:00,59.8,55.0,29.94,NW,305,0.0,-999.0,83,-99.99,,,0.00,weatherlink.com 1.10,2013-09-03 01:52:00,
2013-09-02 21:07:00,59.3,55.0,29.95,NW,305,0.0,-999.0,85,-99.99,,,0.00,weatherlink.com 1.10,2013-09-03 02:07:00,
2013-09-02 21:22:00,59.0,55.0,29.95,NW,305,0.0,-999.0,85,-99.99,,,0.00,weatherlink.com 1.10,2013-09-03 02:22:00,
2013-09-02 21:37:00,58.8,54.0,29.95,NW,305,0.0,-999.0,85,-99.99,,,0.00,weatherlink.com 1.10,2013-09-03 02:37:00,
2013-09-02 21:52:00,59.1,55.0,29.96,NW,305,0.0,-999.0,85,-99.99,,,0.00,weatherlink.com 1.10,2013-09-03 02:52:00,
2013-09-02 22:07:00,59.2,54.0,29.96,NW,305,0.0,-999.0,84,-99.99,,,0.00,weatherlink.com 1.10,2013-09-03 03:07:00,
2013-09-02 22:22:00,59.0,54.0,29.96,NW,305,0.0,-999.0,83,-99.99,,,0.00,weatherlink.com 1.10,2013-09-03 03:22:00,
2013-09-02 22:37:00,58.4,54.0,29.96,NW,305,0.0,-999.0,84,-99.99,,,0.00,weatherlink.com 1.10,2013-09-03 03:37:00,
2013-09-02 22:52:00,58.4,54.0,29.96,NW,305,0.0,-999.0,84,-99.99,,,0.00,weatherlink.com 1.10,2013-09-03 03:52:00,
2013-09-02 23:07:00,58.3,54.0,29.96,NW,305,0.0,-999.0,84,-99.99,,,0.00,weatherlink.com 1.10,2013-09-03 04:07:00,
2013-09-02 23:22:00,57.9,53.0,29.96,NW,305,0.0,-999.0,84,-99.99,,,0.00,weatherlink.com 1.10,2013-09-03 04:22:00,
2013-09-02 23:37:00,57.0,53.0,29.96,NW,305,0.0,-999.0,86,-99.99,,,0.00,weatherlink.com 1.10,2013-09-03 04:37:00,
2013-09-02 23:52:00,56.9,53.0,29.96,NW,305,0.0,-999.0,85,-99.99,,,0.00,weatherlink.com 1.10,2013-09-03 04:52:00,